Regional Weather Roundup
Issued by NWS

Home | Current Version | Previous Version | Text Only | Print | Product List | Glossary Off
Versions: 1 2 3 4 5 6 7 8 9 10 11 12 13 14 15 16 17 18 19 20 21 22 23 24 25 26 27 28 29 30 31 32 33 34 35 36 37 38 39 40 41 42 43 44 45 46 47 48 49 50

455
ASUS43 KIND 200109
RWRIN

WEATHER ROUNDUP FOR INDIANA
NATIONAL WEATHER SERVICE INDIANAPOLIS IN
800 PM EST THU JAN 19 2017

NOTE: "FAIR" INDICATES FEW OR NO CLOUDS BELOW 12,000 FEET WITH NO
SIGNIFICANT WEATHER AND/OR OBSTRUCTIONS TO VISIBILITY.

* - STATION DOES NOT REPORT WEATHER SUCH AS PRECIPITATION OR FOG.

+ - STATION NOT QUALITY CONTROLLED BY THE NATIONAL WEATHER SERVICE.
    USE DATA WITH CAUTION...ESPECIALLY DEWPOINT AND RELATIVE
    HUMIDITY OBSERVATIONS.

INZ001>003-010>013-019-020-200200-
NORTHWEST INDIANA

CITY           SKY/WX    TMP DP  RH WIND       PRES   REMARKS
GARY /AIRPORT/ LGT RAIN  39  37  93 SE7       29.85S
KNOX *+        CLOUDY    37  27  65 SE7       29.87S
LA PORTE +     DRIZZLE   37  36  95 SE7       29.87S
MICHIGAN CITY+ DRIZZLE   37  37 100 SE9       29.87S
MONTICELLO +   RAIN      39  37  93 E8        29.84F
RENSSELAER +   LGT RAIN  39  37  93 E15       29.81F
VALPARAISO     LGT RAIN  39  37  92 E12       29.84F FOG

$$

LMZ046-743>745-200200-
SOUTHERN LAKE MICHIGAN

STATION/POSITION TIME  TEMP    WIND        PRES    WAVE
                       AIR SEA DIR/SP/G            HT
                 (UTC) (F)     (DEG/KT/KT) (MB)    (FT)
BURNS HARBOR     0040   39     110/ 12/ 15 1011.5F
MICHIGAN CITY    0040   39      90/  6/  8   N/A

$$

INZ004-005-014>016-021>024-200200-
NORTH CENTRAL INDIANA

CITY           SKY/WX    TMP DP  RH WIND       PRES   REMARKS
ELKHART        CLOUDY    37  34  87 SE7       29.88R FOG
GOSHEN         LGT RAIN  38  33  82 SE8       29.88R
LOGANSPORT +   RAIN      37  37 100 E10       29.85F
PERU/GRISSOM   RAIN      40  40 100 E9        29.83F FOG
ROCHESTER +    LGT RAIN  41  37  87 SE7       29.87F
SOUTH BEND     CLOUDY    37  35  92 SE10      29.88R
WARSAW +       CLOUDY    37  32  81 SE7       29.89R

$$

INZ006>009-017-018-025>027-200200-
NORTHEAST INDIANA

CITY           SKY/WX    TMP DP  RH WIND       PRES   REMARKS
ANGOLA *+      MOCLDY    36  36 100 SE8       29.87F
AUBURN +       MOCLDY    37  34  87 SE3       29.89S
FORT WAYNE     CLOUDY    40  36  86 E6        29.89S
HUNTINGTON +   CLOUDY    38  37  96 E3        29.88F
KENDALLVILLE + CLOUDY    36  35  95 SE8       29.88S FOG

$$

INZ028-029-035-036-043>045-051>053-200200-
WEST CENTRAL INDIANA

CITY           SKY/WX    TMP DP  RH WIND       PRES   REMARKS
CRAWFORDSVL +  LGT SNOW  41  41 100 E13G18    29.78F
GREENCASTLE +  LGT RAIN  43  43 100 E13       29.78F
LAFAYETTE      LGT RAIN  41  41 100 E14       29.80F FOG
TERRE HAUTE    LGT RAIN  44  42  93 SE7       29.76F

$$

INZ030>032-037>040-046>048-054>057-064-065-200200-
CENTRAL INDIANA

CITY           SKY/WX    TMP DP  RH WIND       PRES   REMARKS
CP ATTERBURY + LGT RAIN  45  43  93 E6        29.81F
COLUMBUS       LGT RAIN  45  45 100 E5        29.82F FOG
FISHERS *+     CLOUDY    41  41 100 E3        29.82
FRANKFORT +    RAIN      44  42  93 E13G18    29.83F
GREENWOOD *+   CLOUDY    45  44  96 E8        29.81F
INDIANAPOLIS   RAIN      44  41  89 E13       29.80F FOG
-EAGLE CREEK   LGT RAIN  44  41  89 E9        29.80F
KOKOMO +       LGT RAIN  40  39  97 E10       29.85F FOG
MARION +       CLOUDY    41  37  87 E3        29.87F FOG
MT COMFORT *+  CLOUDY    43  41  93 E9        29.82F
SHELBYVILLE    RAIN      45  41  86 E8        29.81F FOG
ZIONSVILLE +   LGT RAIN  42  40  94 E10       29.82F

$$

INZ033-034-041-042-049-050-058-059-200200-
EAST CENTRAL INDIANA

CITY           SKY/WX    TMP DP  RH WIND       PRES   REMARKS
MUNCIE         CLOUDY    44  39  82 E6        29.85F

$$

INZ060-061-067>069-081>083-085>088-200200-
SOUTHWEST INDIANA

CITY           SKY/WX    TMP DP  RH WIND       PRES   REMARKS
EVANSVILLE     LGT RAIN  52  51  97 SE6       29.74F
HUNTINGBURG *+ LGT RAIN  50  49  96 SE7       29.76F
WASHINGTON +   LGT RAIN  47  46  93 SE8       29.75F

$$

INZ062-063-066-070>080-084-089>092-200200-
SOUTH CENTRAL AND SOUTHEAST INDIANA

CITY           SKY/WX    TMP DP  RH WIND       PRES   REMARKS
BLOOMINGTON    RAIN      46  43  89 SE9       29.77F FOG
MADISON *+     CLOUDY    46  43  87 E5        29.83F
NORTH VERNON + LGT RAIN N/A N/A N/A E8        29.82
SEYMOUR +      DRIZZLE   48  46  93 E5        29.81

$$





USA.gov is the U.S. government's official web portal to all federal, state and local government web resources and services.